Location: Bay Point
(38.0268°N, 121.9419°W)
Time: 00:41:45
(UTC+00:00)

Daily predictions for brighter satellites

Satellite Brightness Start Highest point End
(mag) Time Altitude Azimuth Time Altitude Azimuth Time Altitude Azimuth
Meteor 1-18 Rocket 4.5 03:51:58 10° S 03:57:52 86° W 04:03:42 10° N
Lacrosse 5 rocket 3.4 03:56:17 10° WNW 03:59:34 22° WSW 04:02:46 10° S
Cosmos 1470 4.3 03:58:19 10° NNE 04:00:59 19° ENE 04:03:37 10° ESE
Cosmos 2026 Rocket 4.0 03:59:39 10° S 04:05:51 86° E 04:11:58 10° N
CZ-4 R/B 2.6 04:02:09 10° S 04:05:54 42° W 04:09:43 10° NNW
KORONAS-FOTON 4.3 04:04:40 10° SSE 04:08:06 37° E 04:11:33 10° NNE
Cosmos 1328 Rocket 4.0 04:06:26 10° SSW 04:10:40 64° W 04:14:56 10° N
CZ-4B R/B 3.4 04:08:06 10° S 04:13:21 71° WSW 04:18:40 10° NNW
Cosmos 1842 3.3 04:10:19 10° SSE 04:13:49 48° E 04:17:21 10° NNE
OPS 6432 4.4 04:10:46 10° NW 04:13:51 72° WSW 04:17:19 10° SSE
IRIDIUM 106 4.4 04:16:03 10° N 04:21:13 61° E 04:26:22 10° SSE
Cosmos 2360 Rocket 4.3 04:26:56 10° NNE 04:29:37 13° NE 04:32:17 10° ENE
Cosmos 540 Rocket 3.8 04:24:47 10° N 04:29:47 49° ENE 04:34:02 14° SE
USA 186 4.0 04:27:56 10° SSW 04:30:46 26° W 04:33:36 10° NW
Cosmos 1707 2.4 04:34:58 10° S 04:38:34 80° E 04:42:11 10° N
Okean-O 2.6 04:36:10 11° SSE 04:40:24 80° ENE 04:44:49 10° N
Cosmos 2082 Rocket 3.7 04:35:09 10° SW 04:40:30 41° WNW 04:45:53 10° N
SL-16 R/B 3.2 04:36:08 10° N 04:41:11 32° ENE 04:45:05 15° ESE
Cosmos 1515 Rocket 4.0 04:38:26 10° SSW 04:42:41 64° W 04:47:00 10° N
Cosmos 2333 Rocket 4.2 04:39:37 10° NNE 04:43:05 16° NE 04:46:32 10° E
Cosmos 1954 Rocket 4.3 04:38:07 10° SSW 04:43:24 75° WNW 04:48:41 10° NNE
Cosmos 2369 3.9 04:39:33 10° NNW 04:45:17 73° WSW 04:50:32 12° SSE
SeaSat 1 3.4 04:42:03 15° ESE 04:45:31 34° ENE 04:49:55 10° N
CZ-4C R/B 3.4 04:43:26 10° NNE 04:47:35 90° NW 04:51:41 10° SSW
USA 245 4.2 04:47:48 20° ESE 04:49:26 30° ENE 04:53:00 10° N
Atlas Centaur 2 3.3 04:42:09 10° WSW 04:49:51 50° S 04:56:31 15° ESE
Tiangong -2.2 04:50:11 10° WNW 04:53:22 82° SSW 04:54:54 27° ESE
Cosmos 676 Rocket 4.3 04:49:13 10° SSW 04:54:31 73° WNW 04:59:50 10° NNE
SPOT 5 2.5 04:53:26 18° SSE 04:56:37 80° ENE 05:00:59 10° N
Cosmos 2228 Rocket 4.1 04:56:00 22° SE 04:57:49 29° E 05:01:44 10° NNE
ASTRO E2 4.1 04:56:58 10° SSW 04:58:37 17° S 04:58:37 17° S
Okean O Rocket 3.3 04:56:41 10° SSW 05:00:32 30° W 05:04:24 10° NW
IRS-1A Rocket 4.2 04:57:30 18° SSE 05:01:34 71° ENE 05:07:03 10° N
MetOp-B 4.1 04:57:49 16° SSE 05:02:08 89° ENE 05:07:31 10° NNW
Cosmos 1356 Rocket 4.4 05:01:42 25° ESE 05:02:58 29° E 05:06:37 10° NNE
SL-08 ROCKET BODY 4.5 04:58:26 13° S 05:03:48 61° E 05:09:47 10° NNE
Cosmos 1869 Rocket 3.7 05:00:35 10° N 05:04:59 60° E 05:07:23 26° SSE
Cosmos 1400 Rocket 2.7 05:03:49 21° S 05:06:14 63° E 05:10:03 10° NNE
Cosmos 1553 Rocket 4.3 05:05:41 10° NNW 05:11:49 67° W 05:17:42 12° S
ERS-1 Rocket 2.9 05:10:39 24° SSE 05:13:41 74° ENE 05:18:42 10° N
ATLAS CENTAUR R/B 0.7 05:11:14 13° SSW 05:14:15 71° ESE 05:17:47 10° NE
S3M 4.0 05:09:04 10° N 05:15:25 69° E 05:19:23 24° SSE
Cosmos 1300 3.6 05:13:45 10° NNE 05:16:52 28° ENE 05:17:15 27° E
Cosmos 1441 Rocket 3.3 05:14:30 10° NNW 05:18:05 65° W 05:19:50 28° S
Cosmos 841 Rocket 3.7 05:14:21 10° N 05:19:33 60° ENE 05:22:02 30° SE
Meteor 1-22 Rocket 4.3 05:15:03 10° N 05:20:46 73° E 05:24:08 27° SSE
Cosmos 2266 Rocket 4.0 05:15:24 11° S 05:21:33 87° W 05:27:59 10° N
Cosmos 1980 Rocket 4.0 05:17:43 10° NW 05:22:13 25° WSW 05:26:42 10° SSW
Cosmos 1655 Rocket 4.0 05:19:20 20° S 05:23:48 67° E 05:30:09 10° NNE
Cosmos 2322 Rocket 2.8 05:18:45 10° N 05:24:10 44° ENE 05:26:46 27° ESE
Spot 2 Rocket 3.5 05:22:35 30° SSE 05:25:04 70° ENE 05:30:08 10° N
Cosmos 1908 3.9 05:22:20 10° NNW 05:25:48 45° W 05:27:39 23° SSW
Timation 1 Rocket 4.5 05:19:53 10° SSW 05:25:49 77° WNW 05:31:48 10° NNE
Aureole 3 4.2 05:27:56 31° E 05:28:10 31° E 05:32:04 10° NNE
Resurs 01 Rocket 4.5 05:29:05 10° WSW 05:30:06 11° W 05:31:06 10° WNW
Cosmos 1862 Rocket 3.8 05:32:16 41° SE 05:33:17 51° E 05:37:34 10° NNE
Meteor 2-10 Rocket 3.6 05:29:49 10° N 05:35:22 73° E 05:37:36 36° SSE
Terra 1.8 05:33:36 32° S 05:35:46 78° WSW 05:40:29 10° NNW
Cosmos 2278 3.9 05:30:25 10° NNW 05:36:06 69° WSW 05:38:57 30° S
USA 234 4.1 05:31:27 10° NE 05:37:45 52° NW 05:44:01 10° WSW
Cosmos 807 4.5 05:38:48 57° E 05:38:48 57° E 05:41:44 10° NNE
Meteor 1-21 4.2 05:36:20 30° S 05:39:14 68° E 05:45:01 10° NNE
SL-27 R/B 2.4 05:40:47 54° N 05:40:47 54° N 05:43:03 10° NNE
Landsat 5 3.5 05:37:33 10° NNE 05:41:33 58° E 05:42:09 51° SE
Cosmos 883 Rocket 4.5 05:38:20 10° N 05:44:43 86° E 05:47:53 32° S
Okean 3 3.5 05:44:40 52° ESE 05:45:02 54° E 05:49:06 10° NNE
SL-14 R/B 3.5 05:47:52 39° SW 05:49:02 61° W 05:52:49 10° N
Cosmos 2219 Rocket 3.5 05:44:41 10° N 05:49:34 29° ENE 05:51:37 23° E
Ariane Rocket 3.1 05:47:41 36° S 05:49:47 72° WSW 05:54:53 10° NNW
Landsat 4 3.6 05:51:47 59° SW 05:52:02 61° WSW 05:55:26 10° NNW
Meteor 1-4 Rocket 3.7 05:53:21 26° NE 05:53:21 26° NE 05:54:56 10° NNE
BREEZE-M DEB (TANK) 4.2 05:51:53 10° NNW 05:53:47 22° NE 05:54:33 20° ENE
Cosmos 1707 Rocket 3.7 05:52:13 39° SSW 05:53:49 74° W 05:58:16 10° N
SJ 16-02 1.1 05:53:27 60° SSE 05:54:04 72° ESE 05:58:23 10° NNE
Cosmos 1346 Rocket 2.5 05:57:15 10° N 06:01:07 88° W 06:01:14 84° SSW
RESURS DK-1 2.4 06:02:31 10° NNW 06:06:32 61° WSW 06:06:46 59° SW
COSMOS 2455 4.2 06:07:48 23° E 06:07:48 23° E 06:11:25 10° NE
ARIANE 5 R/B 4.0 06:08:40 25° ENE 06:08:47 25° ENE 06:12:20 10° NNE
CZ-4C R/B 4.0 06:13:09 12° ENE 06:13:09 12° ENE 06:13:40 10° ENE
Cosmos 2315 Rocket 4.3 06:05:13 10° NNW 06:11:30 64° W 06:14:25 33° SSW
Cosmos 2360 Rocket 2.1 06:08:43 10° NNW 06:14:25 89° ENE 06:15:45 55° SSE
SPOT 3 Rocket 4.3 06:12:49 33° SSW 06:14:35 45° W 06:19:33 10° NNW
Cosmos 1455 3.5 06:15:37 10° N 06:17:48 28° NE 06:17:48 28° NE
Cosmos 1733 Rocket 3.5 06:14:55 10° NNW 06:19:14 55° W 06:19:50 50° SW
Cosmos 1758 4.4 06:16:42 10° NNW 06:20:17 35° W 06:20:44 34° WSW
Cosmos 968 Rocket 4.4 06:17:01 19° SW 06:20:28 46° WNW 06:25:27 10° N
ATLAS 2AS CENTAUR R/B 2.6 06:16:06 10° NNW 06:22:54 79° ENE 06:24:53 48° SE
SeaSat 1 3.7 06:21:45 26° SW 06:22:55 29° WSW 06:27:11 10° NW
Okean 1-7 2.9 06:24:31 85° W 06:24:32 85° W 06:28:53 10° N
SL-16 R/B 3.3 06:20:11 10° NW 06:25:12 33° WSW 06:26:57 28° SW
Cosmos 2333 Rocket 2.2 06:22:15 10° NNW 06:28:00 78° WSW 06:29:07 59° S
GP-B 3.6 06:26:58 10° NNE 06:30:43 48° ENE 06:30:43 48° ENE
Cosmos 1908 Rocket 3.8 06:28:52 10° N 06:32:43 57° NE 06:32:43 57° NE
USA 281 3.6 06:32:33 40° ESE 06:34:36 54° ENE 06:40:58 10° NNW
Cosmos 1814 Rocket 3.9 06:29:49 10° NNW 06:35:09 84° WSW 06:35:43 71° S
Atlas Centaur 2 3.5 06:31:16 10° W 06:38:43 37° SSW 06:38:43 37° SSW
Okean 2 4.2 06:47:31 43° WNW 06:47:31 43° WNW 06:51:09 10° N
Cosmos 2237 Rocket 4.3 06:45:14 10° NNE 06:48:46 17° NE 06:51:07 13° E
Cosmos 2227 Rocket 4.3 06:52:28 13° E 06:52:28 13° E 06:53:57 10° ENE
Cosmos 2322 4.0 06:46:10 10° NNW 06:51:43 52° ENE 06:52:24 49° E
Cosmos 1745 Rocket 3.9 06:53:20 64° SSE 06:54:18 77° E 07:00:39 10° N
Cosmos 2333 4.4 06:51:55 10° NNW 06:57:35 57° WSW 06:58:05 55° SW
ALOS 2 4.0 07:00:33 29° ENE 07:00:33 29° ENE 07:03:54 10° N
Cosmos 1315 Rocket 4.4 07:00:13 28° WNW 07:00:16 28° WNW 07:03:45 10° NNW
Cosmos 1953 3.7 07:02:15 10° NNW 07:04:51 33° NW 07:04:51 33° NW
Cosmos 2322 Rocket 3.7 07:03:27 10° NW 07:07:52 24° W 07:08:34 23° WSW
Cosmos 839 Rocket 3.9 07:01:37 10° NW 07:08:08 69° WSW 07:08:45 64° SSW
Nadezhda 1 Rocket 3.8 07:02:02 10° N 07:08:20 87° E 07:09:03 72° SSE
Cosmos 2297 Rocket 2.8 07:11:26 42° E 07:11:26 42° E 07:15:57 10° NE
CENTAUR R/B 3.9 07:20:44 21° E 07:20:44 21° E 07:23:53 10° ENE
BlueWalker 3 3.8 07:23:59 27° NW 07:24:09 27° NNW 07:27:24 10° NNE
Meteor 2-5 Rocket 3.9 07:24:15 62° E 07:24:15 62° E 07:30:00 10° NNE
Cosmos 2242 Rocket 4.2 07:25:41 58° N 07:25:41 58° N 07:29:23 10° N
Cosmos 1486 Rocket 4.0 07:26:39 75° NW 07:26:39 75° NW 07:31:37 10° NNE
Cosmos 371 Rocket 3.6 07:29:04 62° NNE 07:29:04 62° NNE 07:33:04 10° NNE
COSMOS 2428 2.6 07:27:31 10° NNW 07:33:09 87° WNW 07:33:09 87° WNW
Cosmos 2219 Rocket 3.0 07:28:20 10° NW 07:33:19 38° W 07:33:19 38° W
H-2A R/B 3.5 07:34:51 44° NW 07:34:51 44° NW 07:37:58 10° NNW
Cosmos 1354 Rocket 4.4 07:42:02 57° ENE 07:42:02 57° ENE 07:46:31 10° NNE
Cosmos 2263 Rocket 4.3 07:45:28 14° E 07:45:28 14° E 07:47:28 10° ENE
ARIANE 5 R/B 4.4 07:46:08 23° WNW 07:46:08 23° WNW 07:48:39 10° NW
COSMOS 2455 3.4 07:50:53 42° W 07:52:16 51° WNW 07:58:09 10° NNE
NOSS 0 Rocket 3.8 07:47:27 10° NNW 07:53:43 89° ENE 07:53:59 83° SSE
Cosmos 1709 Rocket 4.4 07:53:00 49° WSW 07:53:55 53° W 08:00:09 10° N
CZ-4C R/B 2.6 07:58:11 42° NW 07:58:18 42° NW 08:03:20 10° NNE
NOSS 3-2 (A) 4.4 08:06:19 27° E 08:06:19 27° E 08:09:46 10° NE
Cosmos 2184 Rocket 4.1 08:07:26 63° ESE 08:07:46 64° E 08:14:03 10° NNE
SL-12 R/B(2) 4.1 08:08:53 59° SSE 08:10:11 67° ESE 08:19:13 10° NE
Cosmos 2098 Rocket 3.9 08:04:12 10° N 08:10:49 76° W 08:11:08 74° WSW
ATLAS 2AS CENTAUR R/B 4.4 08:08:57 10° WNW 08:12:17 16° W 08:12:17 16° W
USA 281 4.4 08:19:25 26° WSW 08:19:25 26° WSW 08:24:39 10° NW
SL-4 R/B 3.4 08:16:21 10° NW 08:19:47 38° NNE 08:19:47 38° NNE
Cosmos 332 Rocket 4.2 08:22:36 60° N 08:22:36 60° N 08:26:43 10° NNE
Cosmos 2154 Rocket 3.9 08:24:17 69° ESE 08:24:37 70° E 08:30:52 10° NNE
SL-16 R/B 3.7 08:21:11 10° N 08:26:08 29° ENE 08:28:24 22° E
Cosmos 990 Rocket 4.2 08:28:19 61° NE 08:28:19 61° NE 08:32:42 10° NNE
Cosmos 1825 4.4 08:30:09 22° N 08:30:09 22° N 08:31:30 10° N
H-2A R/B 3.1 08:25:00 10° N 08:28:00 41° NNW 08:28:00 41° NNW
Cosmos 2237 Rocket 2.3 08:27:46 10° NNW 08:32:55 67° WNW 08:32:55 67° WNW
Cosmos 2227 Rocket 2.2 08:34:15 68° WNW 08:34:19 68° WNW 08:39:59 10° NNE
Cosmos 1455 Rocket 4.3 08:39:02 10° N 08:42:43 35° ENE 08:42:43 35° ENE
Okean 2 Rocket 4.2 08:39:26 10° NNW 08:42:29 38° NW 08:42:29 38° NW
Cosmos 1980 4.2 08:40:59 10° NNW 08:45:41 48° W 08:45:41 48° W
GEOS 3 Rocket 4.1 08:41:51 10° NNE 08:46:50 51° NW 08:47:19 49° WNW
CZ-2D R/B 4.3 08:45:32 10° ENE 08:47:54 13° E 08:48:55 12° ESE
Cosmos 1538 Rocket 4.5 08:43:03 10° N 08:48:09 53° ENE 08:48:32 51° E
Meteor 1-21 Rocket 4.2 08:50:20 77° ESE 08:50:30 78° E 08:56:13 10° NNE
Cosmos 1025 Rocket 3.8 08:54:33 49° N 08:54:33 49° N 08:57:48 10° N
Cosmos 2297 Rocket 3.8 08:53:11 21° W 08:54:48 24° WNW 08:59:23 10° N
Cosmos 2219 3.1 08:57:02 82° W 08:57:07 82° WNW 09:02:46 10° NNE
Cosmos 1610 Rocket 4.4 08:59:32 70° SW 09:00:14 78° W 09:06:39 10° N
Cosmos 372 Rocket 4.3 09:02:01 54° E 09:02:01 54° E 09:06:54 10° NNE
Aureole 1 Rocket 4.1 09:05:11 36° NNE 09:05:11 36° NNE 09:07:44 10° NNE
Helios 1A Rocket 4.0 09:08:46 39° NE 09:08:46 39° NE 09:11:36 10° N
CENTAUR R/B 2.9 09:07:50 42° W 09:09:06 49° NW 09:15:38 10° NNE
Cosmos 1461 4.1 09:11:56 35° ENE 09:11:56 35° ENE 09:14:24 10° NE
ADEOS II 4.2 09:10:35 10° ENE 09:13:30 15° E 09:15:11 13° ESE
Cosmos 2341 Rocket 4.1 09:12:42 56° SE 09:13:47 66° E 09:19:57 10° NNE
CRYOSAT 2 4.4 09:09:34 10° N 09:14:17 78° ENE 09:14:17 78° ENE
Cosmos 1937 Rocket 3.5 09:18:39 68° ESE 09:18:46 68° ESE 09:23:59 10° NNE
Cosmos 1898 Rocket 3.4 09:22:24 79° W 09:22:28 80° WNW 09:27:39 10° NNE
Cosmos 1339 Rocket 4.4 09:16:59 10° N 09:23:25 87° W 09:24:38 61° S
Resurs 1-4 Rocket 3.2 09:22:36 10° NNE 09:27:21 33° E 09:28:26 31° ESE
Cosmos 2263 Rocket 2.2 09:27:08 61° W 09:27:41 65° WNW 09:33:14 10° NNE
Cosmos 1869 3.9 09:38:05 10° N 09:41:04 51° NNE 09:41:04 51° NNE
Cosmos 1821 Rocket 4.4 09:44:40 36° SE 09:46:54 53° E 09:52:49 10° NNE
Cosmos 1844 Rocket 3.8 09:45:59 29° SE 09:47:30 34° ESE 09:52:27 10° NE
Cosmos 1437 Rocket 4.1 09:47:29 30° E 09:47:36 30° E 09:50:58 10° NNE
ALOS 4.5 09:46:41 10° NE 09:49:35 16° E 09:51:42 13° ESE
Cosmos 2218 Rocket 3.9 09:48:21 54° SSW 09:49:55 83° W 09:56:08 10° N
Cosmos 1544 Rocket 3.4 09:50:24 10° N 09:54:51 84° E 09:55:05 79° SE
NOSS 3-2 (A) 4.3 09:53:39 26° W 09:55:30 33° NW 10:00:52 10° NNE
Cosmos 2366 rocket 4.0 09:55:02 50° SW 09:56:38 70° W 10:02:53 10° N
Cosmos 2228 3.2 09:53:39 10° N 09:57:57 64° E 09:58:31 57° ESE
Cosmos 1680 Rocket 3.6 09:53:11 10° NNW 09:58:24 71° ENE 10:00:26 37° SE
Cosmos 2112 Rocket 4.3 09:55:33 10° NNW 10:00:41 62° ENE 10:03:19 28° SE
Cosmos 1818 3.8 09:55:33 10° NNW 10:01:01 68° ENE 10:05:15 17° SE
NOSS 3-2 (C) 3.2 10:00:08 51° WSW 10:01:17 66° NW 10:07:09 10° NNE
MSX 3.7 10:01:03 10° NNE 10:06:49 90° WNW 10:08:36 47° SSW
USA 267 3.6 10:02:40 10° NE 10:08:59 51° SE 10:11:21 35° S
BREEZE-M DEB (TANK) 4.1 10:06:51 10° NW 10:08:03 18° NW 10:08:03 18° NW
SL-16 R/B 2.8 10:05:04 10° NW 10:10:12 37° WSW 10:10:12 37° WSW
H-2A R/B 3.3 10:07:49 10° N 10:11:47 70° WNW 10:11:52 69° W
IDEFIX/ARIANE 42P 2.7 10:12:28 10° N 10:17:37 59° WNW 10:18:57 45° SW
CZ-2C R/B 2.5 10:18:45 36° SSE 10:20:58 87° WSW 10:26:22 10° NNW
SL-16 R/B 3.5 10:15:09 10° SE 10:21:03 46° ENE 10:26:57 10° N
CZ-2C R/B 3.0 10:18:42 10° NNE 10:24:05 89° W 10:25:53 42° SSW
Cosmos 1943 3.1 10:19:24 10° NNW 10:25:03 85° ENE 10:29:23 17° SSE
GRACE-FO 1 4.5 10:25:34 66° SE 10:25:55 75° E 10:29:27 10° N
GRACE-FO 2 4.5 10:26:00 67° SE 10:26:21 76° E 10:29:54 10° N
CZ-2D R/B 2.1 10:23:05 10° N 10:28:23 69° WNW 10:30:12 41° SW
Cosmos 1606 4.2 10:25:49 10° NNW 10:27:48 22° WNW 10:27:48 22° WNW
Cosmos 1606 Rocket 4.3 10:26:03 10° N 10:30:22 50° E 10:33:15 19° SSE
Cosmos 921 Rocket 4.1 10:26:33 10° N 10:30:33 41° ENE 10:34:29 10° SE
FENGYUN 3A 3.6 10:26:34 10° NNE 10:31:58 83° ESE 10:34:26 34° S
Cosmos 1536 Rocket 4.0 10:32:33 42° WSW 10:33:15 46° W 10:37:32 10° N
ASTEX 1 3.8 10:31:48 20° SSE 10:35:02 60° E 10:39:50 10° N
Iridium 2 4.2 10:40:08 30° E 10:40:13 30° E 10:42:26 10° NNE
Cosmos 1125 Rocket 4.2 10:38:11 22° SSE 10:41:15 47° ESE 10:46:19 10° NNE
Cosmos 1867 3.7 10:41:52 34° SW 10:44:11 63° WNW 10:49:38 10° NNE
Cosmos 1726 Rocket 4.2 10:41:28 10° N 10:45:50 55° E 10:49:33 14° SSE
Cosmos 1812 4.4 10:42:47 10° NNE 10:45:55 28° ENE 10:49:02 10° SE
Cosmos 2239 Rocket 4.4 10:45:34 29° SSW 10:48:52 71° W 10:55:01 10° N
Dummy Sat-02 4.5 10:46:26 10° N 10:50:06 77° W 10:51:13 42° SSW
Cosmos 494 Rocket 4.1 10:45:32 10° NNW 10:50:47 80° ENE 10:56:02 10° SSE
Cosmos 2058 4.0 10:48:10 16° SSE 10:50:56 39° E 10:54:44 10° NNE
Cosmos 1727 Rocket 4.1 10:44:58 10° NNW 10:51:10 59° W 10:55:03 24° SSW
ADEOS II 2.2 10:48:19 10° N 10:53:29 60° WNW 10:56:03 29° SW
SAR-Lupe-4 3.9 10:51:40 10° NNE 10:55:11 60° ESE 10:56:48 29° S
IRAS Rocket 4.4 10:53:37 10° NNE 10:59:06 71° ESE 11:03:12 18° S
Cosmos 1844 3.8 10:57:17 28° SW 11:00:24 66° WNW 11:06:11 10° NNE
Dummy Sat-01 4.5 11:00:20 10° N 11:04:03 78° W 11:05:58 27° S
USA 81 4.4 10:58:55 10° N 11:04:09 64° E 11:09:22 10° SSE
Cosmos 1000 Rocket 4.5 10:58:56 10° NNW 11:05:09 66° W 11:10:17 15° S
Resurs 1-4 Rocket 3.3 11:02:33 10° N 11:06:59 28° WNW 11:09:29 19° WSW
USA 238 DEB 4.1 11:03:40 21° WSW 11:07:33 46° NW 11:13:56 10° NNE
USA 238 4.1 11:03:42 21° WSW 11:07:36 47° NW 11:13:59 10° NNE
Iridium 4 Rocket 4.0 11:03:28 10° N 11:07:54 52° E 11:12:41 10° SSE
ATLAS 5 CENTAUR R/B 2.9 11:06:36 13° SSE 11:08:29 21° ESE 11:11:05 10° ENE
UNK 4.0 11:04:56 10° SSE 11:09:30 71° ENE 11:14:05 10° N
Meteor 1-28 Rocket 3.2 11:10:01 29° SSW 11:11:28 50° W 11:14:55 10° NNW
Timation 2 Rocket 4.1 11:08:50 19° SSW 11:13:52 85° ESE 11:20:20 10° NNE
Cosmos 1544 3.3 11:13:19 19° SSE 11:14:49 41° E 11:17:19 10° NNE
AQUA 4.4 11:10:26 10° N 11:14:53 42° WNW 11:17:29 22° SW
Delta 2 Rocket 3.5 11:18:28 20° W 11:21:00 50° S 11:25:12 10° ESE
Cosmos 1892 Rocket 3.9 11:19:49 22° SW 11:22:21 49° W 11:26:39 10° N
Cosmos 2058 Rocket 3.2 11:19:53 10° N 11:24:19 77° E 11:28:41 10° S
ALOS 2.8 11:22:35 10° N 11:26:57 44° WNW 11:30:00 18° SW
NOAA 11 4.4 11:22:09 10° NNE 11:27:38 73° ESE 11:33:04 10° S
Cosmos 1535 Rocket 4.5 11:24:39 11° SSW 11:30:36 76° W 11:36:46 10° N
Cosmos 1844 Rocket 3.7 11:27:38 16° WSW 11:31:18 31° WNW 11:36:14 10° N
METEOR-M 4.1 11:29:00 10° NNE 11:34:22 88° WNW 11:39:42 10° SSW
Cosmos 2298 Rocket 4.1 11:29:42 12° SSW 11:34:38 82° ESE 11:39:59 10° NNE
Cosmos 1607 3.9 11:37:50 10° NW 11:44:11 70° WSW 11:50:22 10° SSE
Orbus 7S? 4.4 11:41:44 10° WNW 11:45:14 39° SW 11:52:07 10° SSE
Cosmos 1605 Rocket 4.0 11:42:19 10° SSW 11:48:28 66° W 11:54:35 10° N
CZ-4 R/B 4.0 11:44:04 10° N 11:48:58 69° WNW 11:53:54 10° SSW
Cosmos 1626 Rocket 3.5 11:44:39 10° S 11:49:05 82° W 11:53:32 10° N
NOSS 2-2 (C) 2.7 11:46:58 14° SW 11:49:50 77° WNW 11:52:57 10° NNE
USA 267 3.9 11:45:44 10° NE 11:51:54 46° NW 11:58:04 10° WSW
Cosmos 2278 Rocket 3.8 11:48:55 10° SSE 11:53:50 31° ESE 11:58:45 10° NE
H-2A R/B 3.6 11:49:13 10° NNE 11:54:05 36° E 11:58:47 10° SSE
SWAS 4.4 11:50:31 11° SSW 11:54:33 76° WNW 11:58:46 10° NNE
Cosmos 1862 4.4 11:51:06 10° SSE 11:54:42 43° E 11:58:19 10° NNE
